www.pogodaiklimat.ru

Погода и климат >> Архив погоды >> Франция >> Мюре-Лерм


ПОГОДА в Мюре-Лерм

  • Прогноз погоды в Мюре-Лерм
  • Монитор погоды в Мюре-Лерм

АРХИВ ПОГОДЫ в Мюре-Лерм

Время (UTC), дата Ветер
(напр.,м/с)
 
Видим.   Явления Облачность Т
(С)
Тd
(С)
f
(%)
Тe
(С)
Тes
(С)
Комфортность P
(гПа)
Po
(гПа)
Тmin
(С)
Tmax
(С)
R
(мм)
R24
(мм)
S
(см)
10 10.08 С 2
{5}
20 км 10/10 600 м
[]
+23.5 +15.3 60 +26 +26 жарко 1020.1 998.2
11 10.08 С 3
{5}
20 км 10/10 1000 м
[]
+23.6 +15.4 60 +27 +27 жарко 1020.0 998.1
12 10.08 С 3
{6}
20 км 10/10 600 м
[]
+23.8 +15.6 60 +27 +27 жарко 1019.8 998.0
13 10.08 С 1
{5}
20 км 10/10 1000 м
[]
+25.5 +15.8 55 +29 +29 душно 1019.5 997.8
14 10.08 СЗ 2
{4}
20 км 10/10 1000 м
[]
+26.0 +15.7 53 +29 +29 душно 1019.2 997.5
15 10.08 СЗ 3
{5}
20 км 10/10 1000 м
[]
+25.3 +15.6 55 +28 +28 жарко 1019.0 997.3
16 10.08 СЗ 1
{3}
20 км 10/10 1500 м
[]
+25.7 +16.3 56 +29 +29 душно 1018.8 997.1
17 10.08 С 2
{5}
20 км 10/10 1500 м
[]
+24.6 +16.3 60 +28 +28 душно 1018.8 997.0
18 10.08 СЗ 2
{3}
20 км 10/0 2000 м
[]
+24.2 +17.2 65 +28 +28 душно 1019.0 997.2 +19.3 +26.9
19 10.08 штиль 0
{2}
19 км 10/0 2000 м
[]
+23.5 +17.0 67 +27 +27 душно 1018.9 997.1
20 10.08 С 1
{1}
19 км 10/0 2000 м
[]
+21.6 +17.2 76 +26 +26 душно 1019.2 997.2
21 10.08 З 2
{2}
20 км 8/0
[]
+20.1 +17.7 86 +24 +24 комфорт 1019.6 997.5
22 10.08 СЗ 2
{2}
20 км 8/0
[]
+19.3 +17.3 88 +22 +22 комфорт 1019.2 997.1
23 10.08 С 1
{3}
20 км 10/0
[]
+20.0 +16.4 80 +24 +24 комфорт 1019.2 997.1
00 11.08 С 1
{3}
20 км 9/0
[]
+19.4 +15.7 79 +22 +22 комфорт 1018.5 996.4
01 11.08 СЗ 1
{2}
20 км н/о +18.0 +15.8 87 +19 +19 1018.0 995.8
02 11.08 СЗ 2
{2}
19 км н/о +16.8 +15.1 90 +17 +17 1017.4 995.1
03 11.08 Ю 1
{2}
19 км 10/0
[]
+17.2 +15.9 92 +18 +18 1016.6 994.3
04 11.08 З 2
{3}
17 км н/о +16.5 +15.2 92 +17 +17 1015.8 993.5
05 11.08 З 1
{2}
17 км н/о +16.1 +15.0 93 +17 +17 1015.0 992.7
06 11.08 З 1
{2}
17 км н/о +17.0 +16.0 94 +18 +18 1014.4 992.2 +16.1 +24.2
07 11.08 СЗ 3
{4}
19 км н/о +19.9 +16.9 83 +23 +23 комфорт 1014.2 992.2
08 11.08 СЗ 6
{9}
19 км н/о +21.0 +16.4 75 +24 +24 комфорт 1014.6 992.7
09 11.08 СЗ 9
{13}
19 км 9/9 300 м
[]
+19.7 +15.8 78 +21 +21 комфорт 1016.6 994.5
10 11.08 СЗ 5
{12}
20 км 10/10 300 м
[]
+18.2 +14.9 81 +18 +18 1017.9 995.7
11 11.08 СЗ 4
{7}
20 км 10/10 200 м
[]
+18.2 +15.6 85 +18 +18 1018.0 995.8 0.2
12 11.08 З 3
{6}
20 км 10/10 300 м
[]
+18.3 +15.2 82 +19 +19 1018.5 996.3 0.2
13 11.08 З 4
{7}
20 км 10/10 300 м
[]
+17.9 +15.0 83 +18 +18 1018.4 996.1
14 11.08 З 4
{7}
20 км 10/10 300 м
[]
+18.4 +15.1 81 +19 +19 1018.0 995.8
15 11.08 З 4
{7}
20 км 10/10 300 м
[]
+19.1 +15.4 79 +20 +20 1018.4 996.2
16 11.08 З 4
{7}
20 км 10/10 1500 м
[]
+20.4 +15.4 73 +23 +23 комфорт 1018.0 995.9
17 11.08 З 4
{7}
20 км 9/9 600 м
[]
+20.9 +15.0 69 +24 +24 комфорт 1018.0 996.0
18 11.08 З 4
{6}
20 км н/о +20.6 +14.9 70 +24 +24 комфорт 1018.1 996.1 +17.0 +21.5
19 11.08 СЗ 3
{5}
20 км н/о +18.7 +14.4 76 +20 +20 1018.7 996.5
20 11.08 З 2
{3}
20 км 9/9 1500 м
[]
+17.5 +14.8 84 +18 +18 1019.4 997.1
21 11.08 СЗ 2
{3}
20 км 10/10 1500 м
[]
+17.9 +15.5 86 +18 +18 1019.5 997.2
22 11.08 З 2
{3}
20 км 10/10 1500 м
[]
+18.1 +15.2 83 +19 +19 1019.8 997.5
23 11.08 СЗ 2
{3}
20 км 10/0 2000 м
[]
+17.9 +15.0 83 +18 +18 1019.7 997.4
00 12.08 СЗ 2
{3}
20 км 10/0 2000 м
[]
+17.7 +15.3 86 +18 +18 1019.4 997.1
01 12.08 СЗ 3
{5}
20 км 10/10 1500 м
[]
+17.7 +15.1 85 +18 +18 1018.7 996.4
02 12.08 СЗ 3
{5}
20 км 10/0 2000 м
[]
+17.3 +15.1 87 +17 +17 1018.8 996.5
03 12.08 С 3
{5}
20 км 10/10 1000 м
[]
+17.0 +14.6 86 +17 +17 1019.0 996.7
04 12.08 С 2
{4}
20 км 10/10 600 м
[]
+16.5 +14.9 90 +17 +17 1019.1 996.7 0.0
05 12.08 С 2
{4}
11 км слаб. дождь 10/10 600 м
[]
+15.9 +14.1 89 +16 +16 1019.3 996.9 0.6
06 12.08 СЗ 2
{2}
20 км 10/0 2000 м
[]
+16.0 +14.5 91 +16 +17 1019.6 997.2 +15.8 +20.6 0.8
07 12.08 З 2
{3}
20 км 10/0 2000 м
[]
+16.6 +14.8 89 +17 +18 1020.0 997.6
08 12.08 З 3
{5}
20 км 10/10 200 м
[]
+17.0 +15.0 88 +17 +17 1020.5 998.1 0.0
09 12.08 З 4
{5}
20 км 10/10 300 м
[]
+17.5 +14.8 84 +17 +17 1020.9 998.6 0.0
10 12.08 З 4
{7}
20 км 10/10 300 м
[]
+18.8 +14.9 78 +20 +20 1021.4 999.1
11 12.08 З 4
{7}
20 км 10/10 300 м
[]
+18.7 +14.2 75 +20 +20 1021.5 999.2
12 12.08 СЗ 4
{7}
20 км 10/10 600 м
[]
+20.0 +13.7 67 +22 +22 комфорт 1021.3 999.1
13 12.08 З 5
{8}
20 км 10/10 600 м
[]
+20.3 +14.0 67 +23 +23 комфорт 1021.4 999.2
14 12.08 З 5
{9}
20 км 10/10 600 м
[]
+21.4 +13.6 61 +24 +24 комфорт 1021.1 999.0
15 12.08 СЗ 7
{11}
20 км 10/10 1000 м
[]
+18.4 +11.5 64 +18 +18 1021.4 999.1
16 12.08 З 4
{9}
20 км 10/10 1000 м
[]
+18.3 +12.5 69 +19 +19 1021.5 999.2
17 12.08 З 4
{6}
20 км 10/10 600 м
[]
+19.3 +13.7 70 +21 +21 комфорт 1021.4 999.2
18 12.08 З 4
{9}
20 км 10/10 1500 м
[]
+18.1 +14.4 79 +18 +18 1021.9 999.6 +15.9 +21.8 0.0
19 12.08 З 5
{7}
20 км 10/10 1000 м
[]
+17.5 +13.6 78 +17 +17 1022.5 1000.1
20 12.08 ЮЗ 4
{6}
20 км 10/0
[]
+17.0 +13.5 80 +17 +17 1023.2 1000.8
21 12.08 ЮЗ 3
{5}
20 км 9/9 1000 м
[]
+16.2 +13.3 83 +16 +16 1023.7 1001.2
22 12.08 З 5
{8}
20 км 9/9 1000 м
[]
+16.5 +13.2 81 +16 +16 1024.0 1001.5
23 12.08 З 5
{8}
20 км 9/9 1500 м
[]
+16.4 +13.3 82 +16 +16 1024.1 1001.6
00 13.08 З 4
{7}
20 км н/о +15.8 +13.1 84 +15 +15 1024.1 1001.5
01 13.08 З 3
{6}
20 км 10/0 2000 м
[]
+15.4 +13.2 87 +15 +15 1023.8 1001.2
02 13.08 З 2
{5}
20 км 10/0 2000 м
[]
+14.7 +12.6 87 +14 +14 1023.5 1000.9
03 13.08 З 2
{4}
20 км 9/0
[]
+14.3 +12.5 89 +14 +14 1023.2 1000.5
04 13.08 З 2
{3}
20 км 10/10 1000 м
[]
+14.0 +12.2 89 +14 +14 1023.1 1000.4
05 13.08 З 2
{3}
20 км 10/10 1500 м
[]
+13.7 +12.3 91 +13 +13 1023.1 1000.4
06 13.08 СЗ 2
{3}
20 км 10/10 600 м
[]
+14.3 +12.8 91 +14 +14 1023.9 1001.2 +13.6 +18.2
07 13.08 СЗ 2
{3}
20 км 10/10 1500 м
[]
+15.9 +13.0 83 +16 +16 1023.8 1001.3
08 13.08 С 2
{4}
20 км 10/10 1500 м
[]
+17.3 +12.0 71 +18 +18 1023.9 1001.5
09 13.08 С 2
{4}
20 км 10/10 600 м
[]
+18.6 +10.7 60 +20 +20 1023.7 1001.3
12 13.08 З 4
{9}
20 км н/о +21.2 +10.4 50 +23 +23 комфорт 1022.3 1000.2
13 13.08 З 4
{9}
20 км н/о +21.5 +10.3 49 +23 +23 комфорт 1021.9 999.8
14 13.08 СЗ 5
{9}
20 км н/о +21.6 +9.8 47 +23 +23 комфорт 1021.5 999.4
15 13.08 З 5
{8}
20 км н/о +22.3 +10.4 47 +24 +24 комфорт 1021.1 999.1
16 13.08 СЗ 5
{8}
20 км 9/9 1500 м
[]
+21.2 +10.1 49 +23 +23 комфорт 1021.1 999.0
17 13.08 СЗ 5
{8}
20 км н/о +21.7 +8.6 43 +23 +23 комфорт 1021.0 998.9
18 13.08 СЗ 4
{7}
20 км н/о +20.8 +9.7 49 +23 +23 комфорт 1021.2 999.1 +14.3 +23.0
19 13.08 СЗ 2
{6}
20 км н/о +17.4 +10.5 64 +18 +18 1021.8 999.4
20 13.08 З 2
{3}
20 км н/о +15.7 +10.9 73 +16 +16 1022.4 999.9
21 13.08 З 2
{3}
20 км н/о +14.4 +10.8 79 +14 +14 1023.1 1000.4
22 13.08 З 2
{3}
20 км н/о +13.0 +10.2 83 +13 +13 1023.2 1000.4
23 13.08 З 1
{2}
20 км н/о +12.7 +10.1 84 +13 +13 1022.6 999.8
00 14.08 ЮЗ 2
{3}
20 км н/о +12.1 +10.2 88 +11 +11 1022.8 1000.0
01 14.08 Ю 2
{3}
20 км н/о +12.1 +10.7 91 +11 +11 1022.2 999.4
02 14.08 ЮЗ 2
{3}
20 км 10/0
[]
+12.5 +11.1 91 +11 +11 1021.9 999.1
03 14.08 Ю 2
{3}
20 км 9/0
[]
+12.2 +10.8 91 +11 +11 1021.5 998.7
04 14.08 Ю 3
{4}
20 км н/о +11.5 +10.2 92 +10 +10 1021.2 998.3
05 14.08 Ю 2
{4}
20 км н/о +11.1 +10.0 93 +10 +10 1021.4 998.5
06 14.08 Ю 2
{3}
20 км н/о +12.2 +11.3 94 +11 +11 1021.4 998.6 +10.9 +20.8
07 14.08 Ю 1
{2}
20 км н/о +15.2 +12.9 86 +16 +16 1021.3 998.8
08 14.08 ЮЗ 1
{3}
20 км н/о +18.6 +12.1 66 +20 +20 1021.2 998.9
09 14.08 З 1
{3}
20 км н/о +20.9 +9.5 48 +24 +24 комфорт 1021.2 999.1
10 14.08 ЮЗ 2
{3}
20 км н/о +22.8 +9.6 43 +24 +24 комфорт 1020.6 998.6
11 14.08 З 2
{4}
20 км н/о +23.6 +8.8 39 +24 +24 комфорт 1020.3 998.4
12 14.08 З 1
{5}
20 км н/о +25.2 +8.2 34 +26 +26 жарко 1019.7 997.9
13 14.08 З 2
{5}
20 км н/о +25.8 +8.7 34 +26 +26 жарко 1018.9 997.2
14 14.08 СЗ 3
{6}
20 км н/о +26.7 +10.8 37 +28 +28 жарко 1018.5 996.9
15 14.08 З 3
{7}
20 км н/о +27.2 +10.4 35 +28 +28 жарко 1018.2 996.6
16 14.08 СЗ 4
{8}
20 км н/о +26.9 +10.1 35 +27 +27 жарко 1018.1 996.5
17 14.08 З 5
{11}
20 км н/о +26.8 +9.2 33 +27 +27 жарко 1017.9 996.3
18 14.08 З 4
{7}
20 км н/о +25.0 +9.7 38 +26 +26 жарко 1018.2 996.4 +12.2 +27.4
19 14.08 З 3
{7}
20 км н/о +22.6 +10.7 47 +25 +25 комфорт 1018.7 996.8
20 14.08 З 3
{5}
20 км 10/10 1500 м
[]
+21.5 +11.2 52 +23 +23 комфорт 1019.5 997.5
21 14.08 З 3
{4}
20 км 8/0
[]
+20.1 +11.6 58 +22 +22 комфорт 1020.1 997.9
22 14.08 З 3
{6}
20 км 10/0 2000 м
[]
+21.1 +10.6 51 +23 +23 комфорт 1020.2 998.1
23 14.08 ЮЗ 3
{5}
20 км 10/10 1500 м
[]
+20.2 +11.4 57 +22 +22 комфорт 1020.3 998.1
00 15.08 З 3
{6}
20 км н/о +19.0 +11.8 63 +20 +20 1020.2 998.0
01 15.08 З 3
{6}
20 км 10/10 1000 м
[]
+19.1 +11.9 63 +20 +20 1020.0 997.8
02 15.08 З 2
{6}
20 км 10/10 1500 м
[]
+19.3 +11.8 62 +21 +21 комфорт 1020.0 997.8
03 15.08 З 4
{7}
20 км 10/10 300 м
[]
+17.5 +14.2 81 +17 +17 1020.3 998.0 0.0
04 15.08 ЮЗ 2
{5}
19 км 10/10 600 м
[]
+17.4 +14.7 84 +18 +18 1020.2 997.9
05 15.08 З 2
{3}
20 км 10/10 300 м
[]
+17.9 +15.2 84 +18 +18 1020.5 998.2
06 15.08 З 3
{5}
20 км 10/10 600 м
[]
+18.9 +15.2 79 +20 +20 1020.7 998.5 +17.3 +25.0
07 15.08 З 3
{4}
20 км 10/10 300 м
[]
+19.6 +15.9 79 +22 +22 комфорт 1021.1 998.9
08 15.08 СЗ 4
{6}
20 км 10/10 300 м
[]
+19.9 +16.1 79 +22 +22 комфорт 1021.5 999.3
09 15.08 СЗ 5
{9}
20 км 10/10 600 м
[]
+20.9 +15.7 72 +24 +24 комфорт 1021.5 999.4
10 15.08 З 4
{8}
20 км 10/10 600 м
[]
+21.4 +15.9 71 +25 +25 комфорт 1021.6 999.5 0.0
11 15.08 СЗ 7
{12}
20 км 10/10 1000 м
[]
+22.5 +14.9 62 +26 +26 жарко 1021.5 999.5
12 15.08 З 5
{10}
20 км 10/10 1000 м
[]
+22.5 +13.6 57 +26 +26 жарко 1021.6 999.6 0.0
13 15.08 СЗ 6
{9}
20 км 10/10 1000 м
[]
+22.4 +14.5 61 +26 +26 жарко 1021.6 999.6
14 15.08 З 5
{9}
20 км 10/10 1000 м
[]
+22.8 +14.6 60 +26 +26 жарко 1021.5 999.5
15 15.08 СЗ 7
{11}
20 км 10/10 1000 м
[]
+22.8 +13.3 55 +26 +26 жарко 1021.6 999.6
16 15.08 СЗ 6
{9}
20 км 10/10 1000 м
[]
+23.0 +12.9 53 +26 +26 жарко 1021.5 999.5
17 15.08 З 5
{10}
20 км 9/9 1000 м
[]
+23.0 +13.2 54 +26 +26 жарко 1021.5 999.5
18 15.08 З 4
{8}
20 км 9/9 1000 м
[]
+22.6 +12.8 54 +25 +25 комфорт 1021.6 999.6 +18.9 +24.3
19 15.08 З 2
{6}
20 км н/о +19.6 +13.3 67 +22 +22 комфорт 1022.0 999.8
20 15.08 З 2
{3}
20 км 9/9 1500 м
[]
+17.8 +13.7 77 +19 +19 1022.5 1000.1
21 15.08 З 2
{3}
20 км н/о +17.4 +13.3 77 +18 +18 1022.8 1000.4
22 15.08 З 3
{3}
20 км н/о +16.0 +12.7 81 +16 +16 1022.9 1000.4
23 15.08 СЗ 3
{4}
20 км н/о +15.0 +12.3 84 +14 +14 1022.7 1000.1
00 16.08 З 2
{3}
20 км н/о +14.3 +12.2 87 +14 +14 1022.2 999.6
01 16.08 СЗ 2
{2}
20 км 10/10 1000 м
[]
+14.3 +12.7 90 +14 +14 1021.9 999.3
02 16.08 Ю 1
{3}
20 км н/о +13.5 +11.9 90 +14 +14 1021.6 998.9
03 16.08 З 1
{2}
20 км 9/9 1000 м
[]
+12.7 +11.1 90 +13 +13 1021.3 998.5
04 16.08 З 1
{2}
20 км н/о +11.8 +10.4 91 +12 +12 1020.7 997.9
05 16.08 СЗ 1
{2}
18 км н/о +11.3 +10.2 93 +11 +11 1020.7 997.8
06 16.08 штиль 0
{2}
20 км н/о +13.0 +12.2 95 +12 +12 1020.7 998.0 +11.0 +22.7
07 16.08 штиль 0
{1}
20 км н/о +16.7 +14.2 85 +17 +17 1020.6 998.2
08 16.08 В 1
{2}
20 км н/о +20.3 +14.0 67 +24 +24 комфорт 1020.0 997.9
09 16.08 В 2
{4}
20 км н/о +22.5 +13.3 56 +25 +25 комфорт 1019.2 997.3
10 16.08 В 2
{4}
20 км н/о +23.6 +12.9 51 +26 +26 жарко 1018.6 996.7
11 16.08 СВ 2
{5}
20 км н/о +24.9 +13.4 49 +27 +27 жарко 1017.8 996.1
12 16.08 СВ 2
{5}
15 км н/о +26.0 +12.4 43 +28 +28 жарко 1017.3 995.6
13 16.08 З 1
{5}
17 км н/о +27.4 +12.2 39 +29 +29 жарко 1016.6 995.1
14 16.08 СЗ 2
{5}
20 км н/о +28.5 +12.4 37 +30 +30 жарко 1016.0 994.5
15 16.08 С 2
{5}
20 км н/о +28.9 +12.7 37 +30 +30 жарко 1015.7 994.3
16 16.08 ЮЗ 1
{4}
20 км н/о +29.6 +11.6 33 +30 +30 жарко 1015.2 993.8
17 16.08 З 2
{3}
20 км н/о +28.2 +12.9 39 +30 +30 жарко 1015.2 993.7
18 16.08 СЗ 1
{2}
20 км н/о +28.8 +13.1 38 +30 +30 жарко 1015.1 993.7 +13.0 +30.2
19 16.08 штиль 0
{2}
20 км н/о +24.4 +13.6 51 +27 +27 жарко 1015.3 993.6
20 16.08 ЮЗ 1
{1}
20 км н/о +20.2 +13.9 67 +24 +24 комфорт 1015.9 993.9
21 16.08 ЮЗ 1
{2}
20 км н/о +18.3 +13.6 74 +20 +20 1016.3 994.1
22 16.08 штиль 0
{2}
20 км н/о +16.6 +12.5 77 +17 +17 1016.4 994.1
23 16.08 ЮЗ 2
{2}
20 км н/о +16.2 +13.5 84 +17 +17 1016.8 994.4
00 17.08 Ю 2
{3}
20 км н/о +15.5 +13.0 85 +16 +16 1016.9 994.5
01 17.08 Ю 2
{3}
20 км н/о +15.1 +12.8 86 +15 +15 1017.0 994.5
02 17.08 Ю 1
{3}
20 км н/о +14.8 +12.7 87 +15 +15 1017.4 994.9
03 17.08 ЮЗ 2
{2}
20 км н/о +15.1 +12.8 86 +15 +15 1017.6 995.1
04 17.08 Ю 3
{3}
20 км н/о +14.7 +12.6 87 +14 +14 1017.6 995.1
05 17.08 Ю 3
{4}
20 км н/о +14.4 +12.6 89 +14 +14 1017.3 994.8
06 17.08 Ю 2
{4}
20 км н/о +15.7 +14.1 90 +16 +16 1016.9 994.5 +14.1 +28.8
07 17.08 ЮЗ 1
{2}
20 км н/о +18.9 +15.0 78 +21 +21 комфорт 1016.5 994.4
08 17.08 С 1
{2}
20 км н/о +22.0 +14.9 64 +25 +25 комфорт 1016.2 994.3
09 17.08 С 2
{3}
20 км н/о +24.8 +11.4 43 +26 +26 жарко 1016.0 994.3
10 17.08 СВ 2
{5}
20 км н/о +25.8 +12.3 43 +27 +27 жарко 1015.9 994.3

 

Местоположение метеостанции Мюре-Лерм (Франция): широта 43.45 долгота 1.26 высота над уровнем моря 190 м.

В архиве по умолчанию представлена погода в Мюре-Лерм за последнюю неделю. Архивные данные за месяц целиком и за предыдущие месяцы, начиная с января 2011 года, Вы можете получить, выбрав интересующий диапазон дат из раскрывающегося списка и нажав кнопку "Ввод!".


*Определитесь, кто Вы:
робот инопланетянин человек

Внимание! Время в таблицах - всемирное. Для получения местного времени необходимо прибавить поправку, которая равна 1 ч.

Смотрите также архив погоды в соседних городах и на ближайших метеорологических станциях:

Погода в Тулуза аэропорту (Франция) (13 км)
Погода в Тулузе (Франция) (22 км)
Погода в Сен-Жироне (Франция) (52 км)
Погода в Оше (Франция) (59 км)
Погода в Монтобане (Франция) (65 км)
Погода в Альби (Франция) (87 км)
Погода в Артьесе (Испания) (89 км)
Погода в Каркассоне (Франция) (89 км)
Погода в Ажане (Франция) (97 км)
Погода в Тарбе (Франция) (106 км)

Пояснения к столбцам:

Ветер - указаны скорость ветра в м/с - средняя за 10 мин, порывы в срок и между сроками (в фигурных скобках) и направление, откуда дует ветер: С - северный, СВ - северо-восточный, В - восточный, ЮВ - юго-восточный, Ю - южный, ЮЗ - юго-западный, З - западный, СЗ - северо-западный.
Видимость - горизонтальная дальность видимости в метрах или километрах. При видимости от 1 до 10 км при отсутствии осадков обычно наблюдается дымка, при ухудшении видимости до 1 км и менее - туман. В сухую погоду видимость может ухудшаться дымом, пылью или мглою.
Явления - указаны атмосферные явления, наблюдавшиеся в срок или в последний час перед сроком; фигурными скобками обозначены явления, наблюдавшиеся между сроками (за 1-3 часа до срока); квадратными скобками обозначены град или гололедные отложения с указанием их диаметра в мм.
Облачность - указаны через наклонную черту общая и нижняя облачность в баллах и высота нижней границы облаков в метрах; квадратными скобками обозначены формы облаков: Ci - перистые, Cs - перисто-слоистые, Cc - перисто-кучевые, Ac - высококучевые, As - высокослоистые, Sc - слоисто-кучевые, Ns - слоисто-дождевые, Cu - кучевые, Cb - кучево-дождевые. Подробнее классификацию облаков см. в Атласе облаков (PDF).
T - Температура воздуха - температура, измеренная на высоте 2 м над землей.
Td - Температура точки росы - температура, при понижении до которой содержащийся в воздухе водяной пар достигнет насыщения.
f - Относительная влажность воздуха - влажноcть воздуха, измеренная на высоте 2 м над землей.
Te - Эффективная температура - температура, которую ощущает одетый по сезону человек в тени. Характеристика душности погоды. При расчете учитывается влияние влажности воздуха и скорости ветра на теплоощущения человека.
Tes - Эффективная температура на солнце - температура, которую ощущает человек, с поправкой на солнечный нагрев. Характеристика знойности погоды. Зависит от высоты солнца над горизонтом, облачности и скорости ветра. Ночью, в пасмурную погоду, а также при ветре 12 м/с и более поправка равна нулю.
P - Атмосферное давление - приведенное к уровню моря атмосферное давление.
Po - Атмосферное давление - измеренное на уровне метеостанции атмосферное давление.
Tmin - Минимальная температура - минимум температуры воздуха на высоте 2 м над землей.
Tmax - Максимальная температура - максимум температуры воздуха на высоте 2 м над землей.
R - Количество осадков - Количество выпавших осадков за период времени, мм. При наведении курсора мыши на число - период времени, за который выпало указанное количество осадков.
R24 - Количество осадков - Количество выпавших осадков за 24 часа, мм.
S - Снежный покров - Высота снежного покрова, см. При наведении курсора мыши на число - состояние снежного покрова и степень покрытия местности в баллах.